Flag for Ireland Weather past 2 weeks in Limerick, Ireland

Now
61 °F

Partly sunny.


Feels Like: 61 °F
Forecast: 44 / 64 °F
Wind: 12 mph from West

Location: Shannon Airport

Current Time: Aug 20, 2014 at 4:20:23 PM

Latest Report: Aug 20, 2014 at 4:00 PM


Visibility: N/A

Pressure: 30.12 "Hg

Humidity: 52%

Dew point: 43 °F

Location of LimerickLocation

Historic Weather in Limerick — Graph

°F

Limerick temperature yesterday

Maximum temperature yesterday: 63 °F (at 2:00 PM)
Minimum temperature yesterday: 50 °F (at 7:00 AM)
Average temperature yesterday: 56 °F

Past Weeks' High & Low Weather Summary

 TemperatureHumidityPressure
High68 °F (Aug 5, 3:00 PM)100% (Aug 10, 4:00 AM)30.24 "Hg (Aug 10, 4:00 AM)
Low45 °F (Aug 20, 4:30 AM)42% (Aug 18, 3:00 PM)29.47 "Hg (Aug 10, 3:30 AM)
Average58 °F75%29.87 "Hg
* Reported Aug 5 3:00 PM — Aug 20 3:00 PM, Limerick, Weather by CustomWeather, © 2014

Note: Actual official high and low records may vary slightly from our data, if they occured in-between our weather recording intervals... More about our weather records

Advertising

Limerick weather history for previous 24 hours

 ConditionsComfort  
Time TempWeatherWind HumidityBarometerVisibility
3:00 PM
Aug 20
61 °FPartly sunny.8 mph48%30.15 "HgN/A
2:30 PM61 °FScattered clouds.8 mph45%30.15 "HgN/A
2:00 PM61 °FScattered clouds.8 mph45%30.15 "HgN/A
1:30 PM59 °FPartly sunny.9 mph51%30.15 "HgN/A
1:00 PM59 °FPartly sunny.7 mph51%30.15 "HgN/A
12:30 PM59 °FPartly sunny.6 mph51%30.15 "HgN/A
12:00 PM59 °FPartly sunny.9 mph51%30.15 "HgN/A
11:30 AM57 °FPartly sunny.7 mph59%30.15 "HgN/A
11:00 AM57 °FPartly sunny.9 mph55%30.15 "HgN/A
10:30 AM55 °FPartly sunny.7 mph72%30.15 "HgN/A
10:00 AM55 °FBroken clouds.7 mph72%30.15 "HgN/A
9:30 AM54 °FPartly sunny.3 mph77%30.15 "HgN/A
9:00 AM54 °FBroken clouds.2 mph77%30.15 "HgN/A
8:30 AM52 °FPassing clouds.2 mph82%30.15 "HgN/A
8:00 AM50 °FPassing clouds.2 mph82%30.15 "HgN/A
7:30 AM46 °FPassing clouds.1 mph93%30.15 "HgN/A
7:00 AM46 °FPassing clouds.2 mph93%30.12 "HgN/A
6:30 AM48 °FPassing clouds.No wind87%30.12 "HgN/A
6:00 AM46 °FClear.1 mph93%30.12 "Hg10 mi
5:30 AM46 °FClear.2 mph93%30.12 "Hg10 mi
5:00 AM46 °FClear.3 mph93%30.15 "Hg10 mi
4:30 AM45 °FClear.1 mph93%30.15 "Hg10 mi
4:00 AM46 °FClear.1 mph93%30.15 "Hg10 mi
3:30 AM46 °FClear.5 mph93%30.15 "Hg10 mi
3:00 AM46 °FClear.3 mph93%30.15 "Hg10 mi
2:30 AM48 °FClear.3 mph82%30.15 "Hg10 mi
2:00 AM48 °FClear.7 mph82%30.15 "Hg10 mi
1:30 AM48 °FClear.6 mph82%30.15 "Hg10 mi
1:00 AM48 °FClear.7 mph82%30.12 "Hg10 mi
12:30 AM50 °FClear.7 mph71%30.12 "Hg10 mi
12:00 AM50 °FClear.6 mph71%30.12 "Hg10 mi
11:30 PM
Aug 19
52 °FClear.7 mph72%30.12 "Hg10 mi
11:00 PM54 °FClear.6 mph72%30.12 "Hg10 mi
10:30 PM54 °FPassing clouds.5 mph72%30.12 "HgN/A
10:00 PM55 °FPassing clouds.5 mph67%30.12 "HgN/A
9:30 PM55 °FPartly sunny.5 mph67%30.12 "HgN/A
9:00 PM57 °FPartly sunny.6 mph63%30.09 "HgN/A
8:30 PM57 °FPartly sunny.7 mph63%30.09 "HgN/A
8:00 PM59 °FPartly sunny.7 mph55%30.09 "HgN/A
7:30 PM59 °FScattered clouds.6 mph59%30.07 "HgN/A
7:00 PM57 °FScattered clouds.3 mph59%30.07 "HgN/A
6:30 PM57 °FBroken clouds.10 mph59%30.07 "HgN/A
6:00 PM61 °FBroken clouds.12 mph55%30.07 "HgN/A
5:30 PM61 °FBroken clouds.8 mph55%30.07 "HgN/A
5:00 PM59 °FBroken clouds.13 mph59%30.07 "HgN/A
4:30 PM59 °FPartly sunny.12 mph55%30.07 "HgN/A
4:00 PM57 °FBroken clouds.13 mph67%30.07 "HgN/A
Weather by CustomWeather, © 2014

See weather overviewHow to use our weather pages